Time,TemperatureF,DewpointF,PressureIn,WindDirection,WindDirectionDegrees,WindSpeedMPH,WindSpeedGustMPH,Humidity,HourlyPrecipIn,Conditions,Clouds,dailyrainin,SoftwareType,DateUTC
2013-02-28 00:00:00,33.4,30.8,29.62,SSW,209,7.0,7.0,90,0.00,,,0.00,Wunderground v.1.15,2013-02-28 05:00:00,
2013-02-28 00:05:00,33.4,30.8,29.62,SSW,194,6.0,7.0,90,0.00,,,0.00,Wunderground v.1.15,2013-02-28 05:05:00,
2013-02-28 00:10:00,33.4,30.8,29.62,SW,224,7.0,7.0,90,0.00,,,0.00,Wunderground v.1.15,2013-02-28 05:10:00,
2013-02-28 00:15:00,33.4,30.8,29.62,SW,228,7.0,7.0,90,0.00,,,0.00,Wunderground v.1.15,2013-02-28 05:15:00,
2013-02-28 00:20:00,33.4,30.8,29.62,SSW,211,7.0,8.0,90,0.00,,,0.00,Wunderground v.1.15,2013-02-28 05:20:00,
2013-02-28 00:25:00,33.4,30.8,29.62,SW,214,7.0,9.0,90,0.00,,,0.00,Wunderground v.1.15,2013-02-28 05:25:00,
2013-02-28 00:30:00,33.4,30.8,29.62,SSW,210,7.0,9.0,90,0.00,,,0.00,Wunderground v.1.15,2013-02-28 05:30:00,
2013-02-28 00:35:00,33.4,30.8,29.62,SSW,203,8.0,9.0,90,0.00,,,0.00,Wunderground v.1.15,2013-02-28 05:35:00,
2013-02-28 00:40:00,33.4,30.8,29.62,SW,219,8.0,8.0,90,0.00,,,0.00,Wunderground v.1.15,2013-02-28 05:40:00,
2013-02-28 00:45:00,33.4,30.8,29.62,SSW,207,7.0,8.0,90,0.00,,,0.00,Wunderground v.1.15,2013-02-28 05:45:00,
2013-02-28 00:50:00,33.4,30.8,29.62,SW,217,6.0,8.0,90,0.00,,,0.00,Wunderground v.1.15,2013-02-28 05:50:00,
2013-02-28 00:55:00,33.4,30.8,29.62,SSW,200,6.0,8.0,90,0.00,,,0.00,Wunderground v.1.15,2013-02-28 05:55:00,
2013-02-28 01:00:00,33.4,30.8,29.62,SW,214,7.0,7.0,90,0.00,,,0.00,Wunderground v.1.15,2013-02-28 06:00:00,
2013-02-28 01:05:00,33.4,30.8,29.62,SSW,203,7.0,-999.0,90,0.00,,,0.00,Wunderground v.1.15,2013-02-28 06:05:00,
2013-02-28 01:10:00,33.4,30.8,29.62,SSW,203,7.0,-999.0,90,0.00,,,0.00,Wunderground v.1.15,2013-02-28 06:10:00,
2013-02-28 01:15:00,33.4,30.8,29.61,SW,225,8.0,-999.0,90,0.00,,,0.00,Wunderground v.1.15,2013-02-28 06:15:00,
2013-02-28 01:20:00,33.4,30.8,29.62,SSW,203,8.0,-999.0,90,0.00,,,0.00,Wunderground v.1.15,2013-02-28 06:20:00,
2013-02-28 01:25:00,33.4,30.8,29.62,SW,225,6.0,-999.0,90,0.00,,,0.00,Wunderground v.1.15,2013-02-28 06:25:00,
2013-02-28 01:30:00,33.4,30.8,29.62,SSW,203,8.0,-999.0,90,0.00,,,0.00,Wunderground v.1.15,2013-02-28 06:30:00,
2013-02-28 01:35:00,33.5,30.9,29.62,SSW,203,8.0,-999.0,90,0.00,,,0.00,Wunderground v.1.15,2013-02-28 06:35:00,
2013-02-28 01:40:00,33.5,30.9,29.62,SW,225,7.0,-999.0,90,0.00,,,0.00,Wunderground v.1.15,2013-02-28 06:40:00,
2013-02-28 01:45:00,33.5,30.9,29.62,SSW,203,9.0,-999.0,90,0.00,,,0.00,Wunderground v.1.15,2013-02-28 06:45:00,
2013-02-28 01:50:00,33.5,30.9,29.62,SSW,203,6.0,-999.0,90,0.00,,,0.00,Wunderground v.1.15,2013-02-28 06:50:00,
2013-02-28 01:55:00,33.5,30.9,29.62,SW,225,7.0,-999.0,90,0.00,,,0.00,Wunderground v.1.15,2013-02-28 06:55:00,
2013-02-28 02:00:00,33.6,30.7,29.61,SSW,203,8.0,-999.0,89,0.00,,,0.00,Wunderground v.1.15,2013-02-28 07:00:00,
2013-02-28 02:05:00,33.6,30.7,29.61,SSW,203,6.0,-999.0,89,0.00,,,0.00,Wunderground v.1.15,2013-02-28 07:05:00,
2013-02-28 02:10:00,33.6,30.7,29.61,SSW,203,8.0,-999.0,89,0.00,,,0.00,Wunderground v.1.15,2013-02-28 07:10:00,
2013-02-28 02:15:00,33.6,30.7,29.61,SSW,203,8.0,-999.0,89,0.00,,,0.00,Wunderground v.1.15,2013-02-28 07:15:00,
2013-02-28 02:20:00,33.6,30.7,29.61,SW,225,7.0,-999.0,89,0.00,,,0.00,Wunderground v.1.15,2013-02-28 07:20:00,
2013-02-28 02:25:00,33.6,30.7,29.61,SSW,203,8.0,-999.0,89,0.00,,,0.00,Wunderground v.1.15,2013-02-28 07:25:00,
2013-02-28 02:30:00,33.6,30.7,29.61,SSW,203,9.0,-999.0,89,0.00,,,0.00,Wunderground v.1.15,2013-02-28 07:30:00,
2013-02-28 02:35:00,33.6,30.7,29.61,SW,225,7.0,-999.0,89,0.00,,,0.00,Wunderground v.1.15,2013-02-28 07:35:00,
2013-02-28 02:40:00,33.6,30.7,29.61,SW,225,7.0,-999.0,89,0.00,,,0.00,Wunderground v.1.15,2013-02-28 07:40:00,
2013-02-28 02:45:00,33.6,30.7,29.61,SSW,203,6.0,-999.0,89,0.00,,,0.00,Wunderground v.1.15,2013-02-28 07:45:00,
2013-02-28 02:50:00,33.6,30.7,29.61,SSW,203,7.0,-999.0,89,0.00,,,0.00,Wunderground v.1.15,2013-02-28 07:50:00,
2013-02-28 02:55:00,33.5,30.6,29.61,SW,225,6.0,-999.0,89,0.00,,,0.00,Wunderground v.1.15,2013-02-28 07:55:00,
2013-02-28 03:00:00,33.5,30.6,29.61,SSW,203,6.0,-999.0,89,0.00,,,0.00,Wunderground v.1.15,2013-02-28 08:00:00,
2013-02-28 03:05:00,33.5,30.6,29.61,SSW,203,5.0,-999.0,89,0.00,,,0.00,Wunderground v.1.15,2013-02-28 08:05:00,
2013-02-28 03:10:00,33.5,30.6,29.60,SSW,203,7.0,-999.0,89,0.00,,,0.00,Wunderground v.1.15,2013-02-28 08:10:00,
2013-02-28 03:15:00,33.5,30.3,29.60,SSW,203,7.0,-999.0,88,0.00,,,0.00,Wunderground v.1.15,2013-02-28 08:15:00,
2013-02-28 03:20:00,33.4,30.2,29.60,SSW,203,6.0,-999.0,88,0.00,,,0.00,Wunderground v.1.15,2013-02-28 08:20:00,
2013-02-28 03:25:00,33.4,30.2,29.60,SW,225,6.0,-999.0,88,0.00,,,0.00,Wunderground v.1.15,2013-02-28 08:25:00,
2013-02-28 03:30:00,33.4,30.2,29.60,SSW,203,7.0,-999.0,88,0.00,,,0.00,Wunderground v.1.15,2013-02-28 08:30:00,
2013-02-28 03:35:00,33.4,30.2,29.60,SSW,203,6.0,-999.0,88,0.00,,,0.00,Wunderground v.1.15,2013-02-28 08:35:00,
2013-02-28 03:40:00,33.3,30.1,29.60,SSW,203,6.0,-999.0,88,0.00,,,0.00,Wunderground v.1.15,2013-02-28 08:40:00,
2013-02-28 03:45:00,33.3,30.1,29.60,SSW,203,6.0,-999.0,88,0.00,,,0.00,Wunderground v.1.15,2013-02-28 08:45:00,
2013-02-28 03:50:00,33.3,30.1,29.60,SW,225,6.0,-999.0,88,0.00,,,0.00,Wunderground v.1.15,2013-02-28 08:50:00,
2013-02-28 03:55:00,33.4,30.2,29.60,SSW,203,6.0,-999.0,88,0.00,,,0.00,Wunderground v.1.15,2013-02-28 08:55:00,
2013-02-28 04:00:00,33.4,30.2,29.60,SW,225,5.0,-999.0,88,0.00,,,0.00,Wunderground v.1.15,2013-02-28 09:00:00,
2013-02-28 04:05:00,33.3,30.1,29.60,SSW,203,5.0,-999.0,88,0.00,,,0.00,Wunderground v.1.15,2013-02-28 09:05:00,
2013-02-28 04:10:00,33.3,30.1,29.60,SSW,203,5.0,-999.0,88,0.00,,,0.00,Wunderground v.1.15,2013-02-28 09:10:00,
2013-02-28 04:15:00,33.3,30.1,29.60,SSW,203,5.0,-999.0,88,0.00,,,0.00,Wunderground v.1.15,2013-02-28 09:15:00,
2013-02-28 04:20:00,33.3,29.8,29.60,SW,225,6.0,-999.0,87,0.00,,,0.00,Wunderground v.1.15,2013-02-28 09:20:00,
2013-02-28 04:25:00,33.3,29.8,29.60,SSW,203,6.0,-999.0,87,0.00,,,0.00,Wunderground v.1.15,2013-02-28 09:25:00,
2013-02-28 04:30:00,33.2,29.5,29.60,SW,225,8.0,-999.0,86,0.00,,,0.00,Wunderground v.1.15,2013-02-28 09:30:00,
2013-02-28 04:35:00,33.2,29.5,29.60,SW,225,6.0,-999.0,86,0.00,,,0.00,Wunderground v.1.15,2013-02-28 09:35:00,
2013-02-28 04:40:00,33.2,29.5,29.60,SSW,203,7.0,-999.0,86,0.00,,,0.00,Wunderground v.1.15,2013-02-28 09:40:00,
2013-02-28 04:45:00,33.2,29.2,29.60,SW,225,6.0,-999.0,85,0.00,,,0.00,Wunderground v.1.15,2013-02-28 09:45:00,
2013-02-28 04:50:00,33.2,29.2,29.60,SSW,203,6.0,-999.0,85,0.00,,,0.00,Wunderground v.1.15,2013-02-28 09:50:00,
2013-02-28 04:55:00,33.2,29.2,29.60,SSW,203,7.0,-999.0,85,0.00,,,0.00,Wunderground v.1.15,2013-02-28 09:55:00,
2013-02-28 05:00:00,33.1,29.1,29.60,SSW,203,6.0,-999.0,85,0.00,,,0.00,Wunderground v.1.15,2013-02-28 10:00:00,
2013-02-28 05:05:00,33.1,29.1,29.60,SSW,203,6.0,-999.0,85,0.00,,,0.00,Wunderground v.1.15,2013-02-28 10:05:00,
2013-02-28 05:10:00,33.1,29.1,29.60,SW,225,5.0,-999.0,85,0.00,,,0.00,Wunderground v.1.15,2013-02-28 10:10:00,
2013-02-28 05:15:00,33.1,29.1,29.61,SW,225,5.0,-999.0,85,0.00,,,0.00,Wunderground v.1.15,2013-02-28 10:15:00,
2013-02-28 05:20:00,33.1,29.1,29.61,SSW,203,5.0,-999.0,85,0.00,,,0.00,Wunderground v.1.15,2013-02-28 10:20:00,
2013-02-28 05:25:00,33.0,29.0,29.61,SSW,203,6.0,-999.0,85,0.00,,,0.00,Wunderground v.1.15,2013-02-28 10:25:00,
2013-02-28 05:30:00,33.0,29.0,29.61,SW,225,4.0,-999.0,85,0.00,,,0.00,Wunderground v.1.15,2013-02-28 10:30:00,
2013-02-28 05:35:00,33.0,29.3,29.61,SSW,203,5.0,-999.0,86,0.00,,,0.00,Wunderground v.1.15,2013-02-28 10:35:00,
2013-02-28 05:40:00,32.9,29.2,29.61,SW,225,5.0,-999.0,86,0.00,,,0.00,Wunderground v.1.15,2013-02-28 10:40:00,
2013-02-28 05:45:00,32.9,29.2,29.61,SSW,203,7.0,-999.0,86,0.00,,,0.00,Wunderground v.1.15,2013-02-28 10:45:00,
2013-02-28 05:50:00,32.9,29.2,29.61,SSW,203,6.0,-999.0,86,0.00,,,0.00,Wunderground v.1.15,2013-02-28 10:50:00,
2013-02-28 05:55:00,32.9,29.2,29.61,SW,225,5.0,-999.0,86,0.00,,,0.00,Wunderground v.1.15,2013-02-28 10:55:00,
2013-02-28 06:00:00,32.8,29.1,29.61,SW,225,4.0,-999.0,86,0.00,,,0.00,Wunderground v.1.15,2013-02-28 11:00:00,
2013-02-28 06:05:00,32.8,29.1,29.61,SSW,203,4.0,-999.0,86,0.00,,,0.00,Wunderground v.1.15,2013-02-28 11:05:00,
2013-02-28 06:10:00,32.8,29.4,29.61,SW,225,6.0,-999.0,87,0.00,,,0.00,Wunderground v.1.15,2013-02-28 11:10:00,
2013-02-28 06:15:00,32.8,29.4,29.61,SSW,203,6.0,-999.0,87,0.00,,,0.00,Wunderground v.1.15,2013-02-28 11:15:00,
2013-02-28 06:20:00,32.7,29.3,29.61,SSW,203,7.0,-999.0,87,0.00,,,0.00,Wunderground v.1.15,2013-02-28 11:20:00,
2013-02-28 06:25:00,32.7,29.3,29.61,SW,225,7.0,-999.0,87,0.00,,,0.00,Wunderground v.1.15,2013-02-28 11:25:00,
2013-02-28 06:30:00,32.7,29.3,29.61,SSW,203,5.0,-999.0,87,0.00,,,0.00,Wunderground v.1.15,2013-02-28 11:30:00,
2013-02-28 06:35:00,32.7,29.3,29.61,SW,225,6.0,-999.0,87,0.00,,,0.00,Wunderground v.1.15,2013-02-28 11:35:00,
2013-02-28 06:40:00,32.7,29.3,29.61,SW,225,6.0,-999.0,87,0.00,,,0.00,Wunderground v.1.15,2013-02-28 11:40:00,
2013-02-28 06:45:00,32.7,29.3,29.61,SW,225,4.0,-999.0,87,0.00,,,0.00,Wunderground v.1.15,2013-02-28 11:45:00,
2013-02-28 06:50:00,32.6,29.2,29.61,SSW,203,5.0,-999.0,87,0.00,,,0.00,Wunderground v.1.15,2013-02-28 11:50:00,
2013-02-28 06:55:00,32.6,29.2,29.61,SSW,203,6.0,-999.0,87,0.00,,,0.00,Wunderground v.1.15,2013-02-28 11:55:00,
2013-02-28 07:00:00,32.6,29.4,29.61,SSW,203,4.0,-999.0,88,0.00,,,0.00,Wunderground v.1.15,2013-02-28 12:00:00,
2013-02-28 07:05:00,32.5,29.3,29.61,SSW,203,5.0,-999.0,88,0.00,,,0.00,Wunderground v.1.15,2013-02-28 12:05:00,
2013-02-28 07:10:00,32.5,29.3,29.61,SSW,203,6.0,-999.0,88,0.00,,,0.00,Wunderground v.1.15,2013-02-28 12:10:00,
2013-02-28 07:15:00,32.5,29.3,29.61,SW,225,5.0,-999.0,88,0.00,,,0.00,Wunderground v.1.15,2013-02-28 12:15:00,
2013-02-28 07:20:00,32.5,29.3,29.61,SSW,203,7.0,-999.0,88,0.00,,,0.00,Wunderground v.1.15,2013-02-28 12:20:00,
2013-02-28 07:25:00,32.5,29.3,29.61,SW,225,6.0,-999.0,88,0.00,,,0.00,Wunderground v.1.15,2013-02-28 12:25:00,
2013-02-28 07:30:00,32.6,29.4,29.61,SSW,203,6.0,-999.0,88,0.00,,,0.00,Wunderground v.1.15,2013-02-28 12:30:00,
2013-02-28 07:35:00,32.6,29.4,29.62,SW,225,5.0,-999.0,88,0.00,,,0.00,Wunderground v.1.15,2013-02-28 12:35:00,
2013-02-28 07:40:00,32.6,29.4,29.62,SW,225,5.0,-999.0,88,0.00,,,0.00,Wunderground v.1.15,2013-02-28 12:40:00,
2013-02-28 07:45:00,32.6,29.4,29.62,SSW,203,5.0,-999.0,88,0.00,,,0.00,Wunderground v.1.15,2013-02-28 12:45:00,
2013-02-28 07:50:00,32.6,29.4,29.62,SW,225,5.0,-999.0,88,0.00,,,0.00,Wunderground v.1.15,2013-02-28 12:50:00,
2013-02-28 07:55:00,32.6,29.4,29.62,SSW,203,5.0,-999.0,88,0.00,,,0.00,Wunderground v.1.15,2013-02-28 12:55:00,
2013-02-28 08:00:00,32.7,29.5,29.62,SW,225,5.0,-999.0,88,0.00,,,0.00,Wunderground v.1.15,2013-02-28 13:00:00,
2013-02-28 08:05:00,32.7,29.5,29.62,SW,225,5.0,-999.0,88,0.00,,,0.00,Wunderground v.1.15,2013-02-28 13:05:00,
2013-02-28 08:10:00,32.7,29.5,29.62,SW,225,5.0,-999.0,88,0.00,,,0.00,Wunderground v.1.15,2013-02-28 13:10:00,
2013-02-28 08:15:00,32.7,29.5,29.62,SW,225,4.0,-999.0,88,0.00,,,0.00,Wunderground v.1.15,2013-02-28 13:15:00,
2013-02-28 08:20:00,32.7,29.5,29.62,SSW,203,6.0,-999.0,88,0.00,,,0.00,Wunderground v.1.15,2013-02-28 13:20:00,
2013-02-28 08:25:00,32.8,29.6,29.62,SW,225,6.0,-999.0,88,0.00,,,0.00,Wunderground v.1.15,2013-02-28 13:25:00,
2013-02-28 08:40:00,32.8,29.6,29.62,SW,224,5.0,11.0,88,0.00,,,0.00,Wunderground v.1.15,2013-02-28 13:40:00,
2013-02-28 08:45:00,32.8,29.9,29.62,SSW,210,5.0,11.0,89,0.00,,,0.00,Wunderground v.1.15,2013-02-28 13:45:00,
2013-02-28 08:50:00,32.7,29.8,29.62,South,181,5.0,5.0,89,0.00,,,0.00,Wunderground v.1.15,2013-02-28 13:50:00,
2013-02-28 08:55:00,32.8,29.9,29.62,SSE,152,5.0,7.0,89,0.00,,,0.00,Wunderground v.1.15,2013-02-28 13:55:00,
2013-02-28 09:00:00,32.8,29.9,29.62,SSW,194,5.0,5.0,89,0.00,,,0.00,Wunderground v.1.15,2013-02-28 14:00:00,
2013-02-28 09:10:00,32.7,30.1,29.62,SSW,208,5.0,7.0,90,0.00,,,0.00,Wunderground v.1.15,2013-02-28 14:10:00,
2013-02-28 09:20:00,32.7,30.1,29.62,WSW,257,6.0,6.0,90,0.00,,,0.00,Wunderground v.1.15,2013-02-28 14:20:00,
2013-02-28 09:25:00,32.7,30.1,29.63,SW,219,5.0,7.0,90,0.00,,,0.00,Wunderground v.1.15,2013-02-28 14:25:00,
2013-02-28 09:30:00,32.7,30.1,29.63,SSW,193,5.0,5.0,90,0.00,,,0.00,Wunderground v.1.15,2013-02-28 14:30:00,
2013-02-28 09:35:00,32.6,30.3,29.63,SSW,207,5.0,5.0,91,0.00,,,0.00,Wunderground v.1.15,2013-02-28 14:35:00,
2013-02-28 09:40:00,32.6,30.3,29.63,SW,221,4.0,4.0,91,0.00,,,0.00,Wunderground v.1.15,2013-02-28 14:40:00,
2013-02-28 09:45:00,32.6,30.3,29.63,SW,216,4.0,4.0,91,0.00,,,0.00,Wunderground v.1.15,2013-02-28 14:45:00,
2013-02-28 09:50:00,32.7,30.4,29.63,WSW,241,4.0,4.0,91,0.00,,,0.00,Wunderground v.1.15,2013-02-28 14:50:00,
2013-02-28 09:55:00,32.7,30.4,29.63,South,190,5.0,9.0,91,0.00,,,0.00,Wunderground v.1.15,2013-02-28 14:55:00,
2013-02-28 10:00:00,32.7,30.4,29.63,SSW,208,5.0,5.0,91,0.00,,,0.00,Wunderground v.1.15,2013-02-28 15:00:00,
2013-02-28 10:10:00,32.7,30.6,29.63,SSW,204,5.0,5.0,92,0.00,,,0.00,Wunderground v.1.15,2013-02-28 15:10:00,
2013-02-28 10:15:00,32.8,30.7,29.63,WSW,242,5.0,5.0,92,0.00,,,0.00,Wunderground v.1.15,2013-02-28 15:15:00,
2013-02-28 10:20:00,32.9,31.1,29.63,SW,225,5.0,5.0,93,0.00,,,0.00,Wunderground v.1.15,2013-02-28 15:20:00,
2013-02-28 10:25:00,33.0,31.2,29.63,SSW,204,5.0,7.0,93,0.00,,,0.00,Wunderground v.1.15,2013-02-28 15:25:00,
2013-02-28 10:30:00,33.1,31.3,29.63,SW,221,5.0,5.0,93,0.00,,,0.00,Wunderground v.1.15,2013-02-28 15:30:00,
2013-02-28 10:35:00,33.2,31.4,29.63,SW,217,6.0,8.0,93,0.00,,,0.00,Wunderground v.1.15,2013-02-28 15:35:00,
2013-02-28 10:45:00,33.4,31.9,29.63,South,190,7.0,8.0,94,0.00,,,0.00,Wunderground v.1.15,2013-02-28 15:45:00,
2013-02-28 10:50:00,33.6,32.1,29.63,SW,214,6.0,7.0,94,0.00,,,0.00,Wunderground v.1.15,2013-02-28 15:50:00,
2013-02-28 10:55:00,33.8,32.3,29.63,SW,232,7.0,7.0,94,0.00,,,0.00,Wunderground v.1.15,2013-02-28 15:55:00,
2013-02-28 11:00:00,34.0,32.2,29.64,West,281,7.0,7.0,93,0.00,,,0.00,Wunderground v.1.15,2013-02-28 16:00:00,
2013-02-28 11:10:00,34.3,32.5,29.64,WSW,240,5.0,5.0,93,0.00,,,0.00,Wunderground v.1.15,2013-02-28 16:10:00,
2013-02-28 11:20:00,34.3,32.2,29.64,SSE,167,6.0,8.0,92,0.00,,,0.00,Wunderground v.1.15,2013-02-28 16:20:00,
2013-02-28 11:25:00,34.2,32.1,29.64,SW,231,6.0,8.0,92,0.00,,,0.00,Wunderground v.1.15,2013-02-28 16:25:00,
2013-02-28 11:30:00,34.3,32.2,29.64,SSW,212,6.0,12.0,92,0.00,,,0.00,Wunderground v.1.15,2013-02-28 16:30:00,
2013-02-28 11:35:00,34.3,31.9,29.64,WSW,246,6.0,12.0,91,0.00,,,0.00,Wunderground v.1.15,2013-02-28 16:35:00,
2013-02-28 11:40:00,34.4,32.0,29.64,WSW,240,5.0,5.0,91,0.00,,,0.00,Wunderground v.1.15,2013-02-28 16:40:00,
2013-02-28 11:45:00,34.5,32.1,29.64,SW,222,5.0,5.0,91,0.00,,,0.00,Wunderground v.1.15,2013-02-28 16:45:00,
2013-02-28 11:55:00,34.7,32.1,29.64,SW,214,4.0,7.0,90,0.00,,,0.00,Wunderground v.1.15,2013-02-28 16:55:00,
2013-02-28 12:05:00,34.8,31.9,29.64,SW,221,4.0,4.0,89,0.00,,,0.00,Wunderground v.1.15,2013-02-28 17:05:00,
2013-02-28 12:10:00,34.9,32.3,29.64,WSW,239,3.0,3.0,90,0.00,,,0.00,Wunderground v.1.15,2013-02-28 17:10:00,
2013-02-28 12:15:00,35.1,32.5,29.64,SW,222,2.0,4.0,90,0.00,,,0.00,Wunderground v.1.15,2013-02-28 17:15:00,
2013-02-28 12:20:00,35.1,32.2,29.64,SW,214,3.0,3.0,89,0.00,,,0.00,Wunderground v.1.15,2013-02-28 17:20:00,
2013-02-28 12:30:00,35.4,32.5,29.64,WNW,298,2.0,2.0,89,0.00,,,0.00,Wunderground v.1.15,2013-02-28 17:30:00,
2013-02-28 12:35:00,35.5,32.6,29.64,West,269,2.0,9.0,89,0.00,,,0.00,Wunderground v.1.15,2013-02-28 17:35:00,
2013-02-28 12:40:00,35.5,32.3,29.64,SW,233,3.0,4.0,88,0.00,,,0.00,Wunderground v.1.15,2013-02-28 17:40:00,
2013-02-28 12:45:00,35.7,32.8,29.64,WNW,282,4.0,4.0,89,0.00,,,0.00,Wunderground v.1.15,2013-02-28 17:45:00,
2013-02-28 12:50:00,35.8,32.6,29.64,WNW,303,3.0,3.0,88,0.00,,,0.00,Wunderground v.1.15,2013-02-28 17:50:00,
2013-02-28 12:55:00,35.9,32.7,29.64,SW,222,3.0,3.0,88,0.00,,,0.00,Wunderground v.1.15,2013-02-28 17:55:00,
2013-02-28 13:05:00,36.0,32.8,29.64,SW,232,3.0,4.0,88,0.00,,,0.00,Wunderground v.1.15,2013-02-28 18:05:00,
2013-02-28 13:10:00,36.1,32.9,29.65,WSW,243,3.0,6.0,88,0.00,,,0.00,Wunderground v.1.15,2013-02-28 18:10:00,
2013-02-28 13:15:00,36.1,32.9,29.65,NW,312,3.0,6.0,88,0.00,,,0.00,Wunderground v.1.15,2013-02-28 18:15:00,
2013-02-28 13:20:00,36.2,33.0,29.65,West,269,3.0,3.0,88,0.00,,,0.00,Wunderground v.1.15,2013-02-28 18:20:00,
2013-02-28 13:25:00,36.2,33.0,29.65,WSW,257,2.0,3.0,88,0.00,,,0.00,Wunderground v.1.15,2013-02-28 18:25:00,
2013-02-28 13:30:00,36.2,33.0,29.64,SW,228,2.0,6.0,88,0.00,,,0.00,Wunderground v.1.15,2013-02-28 18:30:00,
2013-02-28 13:40:00,36.3,32.8,29.65,West,266,3.0,3.0,87,0.00,,,0.00,Wunderground v.1.15,2013-02-28 18:40:00,
2013-02-28 13:45:00,36.3,32.8,29.65,West,267,2.0,4.0,87,0.00,,,0.00,Wunderground v.1.15,2013-02-28 18:45:00,
2013-02-28 13:50:00,36.3,32.8,29.65,WNW,287,3.0,3.0,87,0.00,,,0.00,Wunderground v.1.15,2013-02-28 18:50:00,
2013-02-28 13:55:00,36.1,32.9,29.65,SW,233,3.0,3.0,88,0.00,,,0.00,Wunderground v.1.15,2013-02-28 18:55:00,
2013-02-28 14:00:00,36.1,32.9,29.65,WNW,298,3.0,3.0,88,0.00,,,0.00,Wunderground v.1.15,2013-02-28 19:00:00,
2013-02-28 14:10:00,35.9,32.7,29.66,West,274,3.0,3.0,88,0.00,,,0.00,Wunderground v.1.15,2013-02-28 19:10:00,
2013-02-28 14:15:00,35.7,32.8,29.66,WNW,284,4.0,4.0,89,0.00,,,0.00,Wunderground v.1.15,2013-02-28 19:15:00,
2013-02-28 14:20:00,35.5,32.6,29.67,NNW,327,4.0,4.0,89,0.00,,,0.00,Wunderground v.1.15,2013-02-28 19:20:00,
2013-02-28 14:25:00,35.4,32.5,29.67,SSE,149,4.0,4.0,89,0.00,,,0.00,Wunderground v.1.15,2013-02-28 19:25:00,
2013-02-28 14:30:00,35.4,32.5,29.67,North,351,3.0,3.0,89,0.00,,,0.00,Wunderground v.1.15,2013-02-28 19:30:00,
2013-02-28 14:35:00,35.4,32.5,29.67,West,274,3.0,5.0,89,0.00,,,0.00,Wunderground v.1.15,2013-02-28 19:35:00,
2013-02-28 14:40:00,35.3,32.4,29.67,NNE,25,3.0,4.0,89,0.00,,,0.00,Wunderground v.1.15,2013-02-28 19:40:00,
2013-02-28 14:50:00,35.2,32.3,29.67,WNW,298,4.0,5.0,89,0.00,,,0.00,Wunderground v.1.15,2013-02-28 19:50:00,
2013-02-28 14:55:00,35.1,32.5,29.68,SW,219,4.0,5.0,90,0.00,,,0.00,Wunderground v.1.15,2013-02-28 19:55:00,
2013-02-28 15:00:00,34.9,32.3,29.68,SE,136,4.0,4.0,90,0.00,,,0.00,Wunderground v.1.15,2013-02-28 20:00:00,
2013-02-28 15:10:00,34.7,32.3,29.68,North,3,3.0,3.0,91,0.00,,,0.00,Wunderground v.1.15,2013-02-28 20:10:00,
2013-02-28 15:15:00,34.7,32.3,29.68,WNW,303,2.0,7.0,91,0.00,,,0.00,Wunderground v.1.15,2013-02-28 20:15:00,
2013-02-28 15:25:00,34.6,32.2,29.69,East,97,3.0,3.0,91,0.00,,,0.00,Wunderground v.1.15,2013-02-28 20:25:00,
2013-02-28 15:35:00,34.6,32.2,29.69,NW,312,2.0,2.0,91,0.00,,,0.00,Wunderground v.1.15,2013-02-28 20:35:00,
2013-02-28 15:40:00,34.5,32.1,29.70,East,86,3.0,4.0,91,0.00,,,0.00,Wunderground v.1.15,2013-02-28 20:40:00,
2013-02-28 15:45:00,34.5,32.1,29.70,NNW,327,3.0,6.0,91,0.00,,,0.00,Wunderground v.1.15,2013-02-28 20:45:00,
2013-02-28 15:50:00,34.5,32.1,29.70,NNE,30,2.0,7.0,91,0.00,,,0.00,Wunderground v.1.15,2013-02-28 20:50:00,
2013-02-28 15:55:00,34.5,32.1,29.70,WNW,290,2.0,7.0,91,0.00,,,0.00,Wunderground v.1.15,2013-02-28 20:55:00,
2013-02-28 16:00:00,34.6,32.5,29.70,SSW,193,2.0,2.0,92,0.00,,,0.00,Wunderground v.1.15,2013-02-28 21:00:00,
2013-02-28 16:10:00,34.8,32.7,29.71,WNW,295,1.0,3.0,92,0.00,,,0.00,Wunderground v.1.15,2013-02-28 21:10:00,
2013-02-28 16:15:00,34.8,32.7,29.71,NNE,18,1.0,3.0,92,0.00,,,0.00,Wunderground v.1.15,2013-02-28 21:15:00,
2013-02-28 16:20:00,34.8,32.7,29.71,NNE,15,2.0,3.0,92,0.00,,,0.00,Wunderground v.1.15,2013-02-28 21:20:00,
2013-02-28 16:25:00,34.8,32.4,29.71,NW,318,1.0,4.0,91,0.00,,,0.00,Wunderground v.1.15,2013-02-28 21:25:00,
2013-02-28 16:30:00,34.7,32.3,29.71,West,277,1.0,1.0,91,0.00,,,0.00,Wunderground v.1.15,2013-02-28 21:30:00,
2013-02-28 16:35:00,34.8,32.7,29.71,ENE,68,1.0,1.0,92,0.00,,,0.00,Wunderground v.1.15,2013-02-28 21:35:00,
2013-02-28 16:45:00,34.8,32.4,29.72,North,354,3.0,3.0,91,0.00,,,0.00,Wunderground v.1.15,2013-02-28 21:45:00,
2013-02-28 16:50:00,34.5,32.1,29.72,NE,37,3.0,3.0,91,0.00,,,0.00,Wunderground v.1.15,2013-02-28 21:50:00,
2013-02-28 16:55:00,34.1,32.0,29.72,East,87,3.0,3.0,92,0.00,,,0.00,Wunderground v.1.15,2013-02-28 21:55:00,
2013-02-28 17:00:00,33.9,31.8,29.73,North,11,2.0,2.0,92,0.00,,,0.00,Wunderground v.1.15,2013-02-28 22:00:00,
2013-02-28 17:10:00,33.8,32.0,29.73,North,1,0.0,3.0,93,0.00,,,0.00,Wunderground v.1.15,2013-02-28 22:10:00,
2013-02-28 17:15:00,33.9,32.1,29.74,NNW,327,1.0,5.0,93,0.00,,,0.00,Wunderground v.1.15,2013-02-28 22:15:00,
2013-02-28 17:20:00,33.9,32.1,29.74,West,271,2.0,2.0,93,0.00,,,0.00,Wunderground v.1.15,2013-02-28 22:20:00,
2013-02-28 17:30:00,33.9,32.1,29.74,NNW,339,2.0,2.0,93,0.00,,,0.00,Wunderground v.1.15,2013-02-28 22:30:00,
2013-02-28 17:35:00,33.9,32.1,29.75,SW,222,2.0,2.0,93,0.00,,,0.00,Wunderground v.1.15,2013-02-28 22:35:00,
2013-02-28 17:40:00,34.0,32.2,29.75,South,191,2.0,2.0,93,0.00,,,0.00,Wunderground v.1.15,2013-02-28 22:40:00,
2013-02-28 17:50:00,34.0,32.2,29.75,NNE,16,2.0,2.0,93,0.00,,,0.00,Wunderground v.1.15,2013-02-28 22:50:00,
2013-02-28 17:55:00,34.0,31.9,29.76,NNE,27,2.0,2.0,92,0.00,,,0.00,Wunderground v.1.15,2013-02-28 22:55:00,
2013-02-28 18:00:00,34.0,31.9,29.76,NE,42,1.0,1.0,92,0.00,,,0.00,Wunderground v.1.15,2013-02-28 23:00:00,
2013-02-28 18:10:00,34.0,31.9,29.77,NNE,16,2.0,2.0,92,0.00,,,0.00,Wunderground v.1.15,2013-02-28 23:10:00,
2013-02-28 18:15:00,33.9,31.8,29.77,ENE,72,3.0,4.0,92,0.00,,,0.00,Wunderground v.1.15,2013-02-28 23:15:00,
2013-02-28 18:20:00,33.8,31.7,29.77,West,259,2.0,2.0,92,0.00,,,0.00,Wunderground v.1.15,2013-02-28 23:20:00,
2013-02-28 18:25:00,33.7,31.9,29.77,NW,308,1.0,2.0,93,0.00,,,0.01,Wunderground v.1.15,2013-02-28 23:25:00,
2013-02-28 18:30:00,33.7,31.9,29.78,SE,129,1.0,1.0,93,0.00,,,0.01,Wunderground v.1.15,2013-02-28 23:30:00,
2013-02-28 18:35:00,33.7,31.6,29.78,West,270,1.0,1.0,92,0.00,,,0.01,Wunderground v.1.15,2013-02-28 23:35:00,
2013-02-28 18:40:00,33.6,31.5,29.79,SSE,151,1.0,2.0,92,0.00,,,0.01,Wunderground v.1.15,2013-02-28 23:40:00,
2013-02-28 18:50:00,33.7,31.4,29.79,WNW,283,2.0,2.0,91,0.00,,,0.01,Wunderground v.1.15,2013-02-28 23:50:00,
2013-02-28 18:55:00,33.8,31.5,29.79,SW,235,1.0,2.0,91,0.00,,,0.01,Wunderground v.1.15,2013-02-28 23:55:00,
2013-02-28 19:00:00,33.8,31.2,29.80,West,274,2.0,2.0,90,0.00,,,0.01,Wunderground v.1.15,2013-03-01 00:00:00,
2013-02-28 19:10:00,33.7,31.1,29.81,West,278,2.0,2.0,90,0.00,,,0.01,Wunderground v.1.15,2013-03-01 00:10:00,
2013-02-28 19:15:00,33.7,31.4,29.81,NW,315,2.0,2.0,91,0.00,,,0.01,Wunderground v.1.15,2013-03-01 00:15:00,
2013-02-28 19:25:00,33.5,31.2,29.82,NW,321,3.0,3.0,91,0.00,,,0.01,Wunderground v.1.15,2013-03-01 00:25:00,
2013-02-28 19:30:00,33.4,31.3,29.82,NNW,327,2.0,3.0,92,0.00,,,0.01,Wunderground v.1.15,2013-03-01 00:30:00,
2013-02-28 19:35:00,33.3,31.2,29.82,North,354,2.0,3.0,92,0.00,,,0.01,Wunderground v.1.15,2013-03-01 00:35:00,
2013-02-28 19:40:00,33.2,31.1,29.82,North,357,2.0,2.0,92,0.00,,,0.01,Wunderground v.1.15,2013-03-01 00:40:00,
2013-02-28 19:45:00,33.1,31.0,29.83,WSW,250,2.0,2.0,92,0.00,,,0.01,Wunderground v.1.15,2013-03-01 00:45:00,
2013-02-28 19:55:00,32.9,30.8,29.83,NW,324,2.0,2.0,92,0.00,,,0.01,Wunderground v.1.15,2013-03-01 00:55:00,
2013-02-28 20:00:00,32.9,30.8,29.83,North,11,2.0,4.0,92,0.00,,,0.01,Wunderground v.1.15,2013-03-01 01:00:00,
2013-02-28 20:10:00,32.7,30.9,29.83,NNE,19,1.0,3.0,93,0.00,,,0.01,Wunderground v.1.15,2013-03-01 01:10:00,
2013-02-28 20:15:00,32.7,30.9,29.84,NNW,333,1.0,3.0,93,0.00,,,0.01,Wunderground v.1.15,2013-03-01 01:15:00,
2013-02-28 20:20:00,32.6,30.8,29.84,NE,49,1.0,1.0,93,0.00,,,0.01,Wunderground v.1.15,2013-03-01 01:20:00,
2013-02-28 20:25:00,32.5,30.7,29.84,NNE,20,1.0,1.0,93,0.00,,,0.01,Wunderground v.1.15,2013-03-01 01:25:00,
2013-02-28 20:35:00,32.5,30.7,29.85,NW,309,1.0,1.0,93,0.00,,,0.01,Wunderground v.1.15,2013-03-01 01:35:00,
2013-02-28 20:40:00,32.4,30.6,29.85,NW,308,1.0,2.0,93,0.00,,,0.01,Wunderground v.1.15,2013-03-01 01:40:00,
2013-02-28 20:45:00,32.4,30.6,29.85,WNW,301,1.0,2.0,93,0.00,,,0.01,Wunderground v.1.15,2013-03-01 01:45:00,
2013-02-28 20:50:00,32.3,30.5,29.85,North,352,2.0,2.0,93,0.00,,,0.01,Wunderground v.1.15,2013-03-01 01:50:00,
2013-02-28 20:55:00,32.2,30.4,29.85,ENE,57,3.0,6.0,93,0.00,,,0.01,Wunderground v.1.15,2013-03-01 01:55:00,
2013-02-28 21:05:00,32.1,30.0,29.85,NE,48,4.0,7.0,92,0.00,,,0.01,Wunderground v.1.15,2013-03-01 02:05:00,
2013-02-28 21:10:00,32.0,29.9,29.85,NNE,30,4.0,4.0,92,0.00,,,0.01,Wunderground v.1.15,2013-03-01 02:10:00,
2013-02-28 21:15:00,31.9,29.8,29.86,WSW,252,4.0,5.0,92,0.00,,,0.01,Wunderground v.1.15,2013-03-01 02:15:00,
2013-02-28 21:20:00,31.8,29.7,29.86,West,273,3.0,3.0,92,0.00,,,0.01,Wunderground v.1.15,2013-03-01 02:20:00,
2013-02-28 21:25:00,31.8,29.7,29.86,NE,56,2.0,7.0,92,0.00,,,0.01,Wunderground v.1.15,2013-03-01 02:25:00,
2013-02-28 21:30:00,31.8,29.7,29.86,NE,50,2.0,5.0,92,0.00,,,0.01,Wunderground v.1.15,2013-03-01 02:30:00,
2013-02-28 21:35:00,31.7,29.6,29.86,NNE,20,3.0,5.0,92,0.00,,,0.01,Wunderground v.1.15,2013-03-01 02:35:00,
2013-02-28 21:40:00,31.7,29.6,29.86,NNE,23,2.0,-999.0,92,0.00,,,0.01,Wunderground v.1.15,2013-03-01 02:40:00,
2013-02-28 21:45:00,31.7,29.6,29.86,NNE,23,3.0,-999.0,92,0.00,,,0.01,Wunderground v.1.15,2013-03-01 02:45:00,
2013-02-28 21:50:00,31.7,29.6,29.86,NE,45,3.0,-999.0,92,0.00,,,0.01,Wunderground v.1.15,2013-03-01 02:50:00,
2013-02-28 21:55:00,31.7,29.4,29.86,NNE,23,4.0,-999.0,91,0.00,,,0.01,Wunderground v.1.15,2013-03-01 02:55:00,
2013-02-28 22:08:00,31.7,29.4,29.86,NNE,23,3.0,-999.0,91,0.00,,,0.01,Wunderground v.1.15,2013-03-01 03:08:00,
2013-02-28 22:15:00,31.9,29.0,29.86,NE,39,3.0,6.0,89,0.00,,,0.01,Wunderground v.1.15,2013-03-01 03:15:00,
2013-02-28 22:20:00,31.8,28.9,29.86,East,88,3.0,3.0,89,0.00,,,0.01,Wunderground v.1.15,2013-03-01 03:20:00,
2013-02-28 22:25:00,31.8,28.9,29.86,ENE,64,2.0,3.0,89,0.00,,,0.01,Wunderground v.1.15,2013-03-01 03:25:00,
2013-02-28 22:30:00,31.8,28.7,29.86,North,9,2.0,2.0,88,0.00,,,0.01,Wunderground v.1.15,2013-03-01 03:30:00,
2013-02-28 22:35:00,31.8,28.7,29.86,NW,315,3.0,3.0,88,0.00,,,0.01,Wunderground v.1.15,2013-03-01 03:35:00,
2013-02-28 22:40:00,31.8,28.7,29.86,NNE,32,3.0,3.0,88,0.00,,,0.01,Wunderground v.1.15,2013-03-01 03:40:00,
2013-02-28 22:50:00,31.8,28.7,29.86,SE,140,3.0,3.0,88,0.00,,,0.01,Wunderground v.1.15,2013-03-01 03:50:00,
2013-02-28 22:55:00,31.8,28.7,29.86,North,6,2.0,3.0,88,0.00,,,0.01,Wunderground v.1.15,2013-03-01 03:55:00,
2013-02-28 23:00:00,31.7,28.6,29.86,North,2,2.0,4.0,88,0.00,,,0.01,Wunderground v.1.15,2013-03-01 04:00:00,
2013-02-28 23:10:00,31.4,28.5,29.86,NNW,330,4.0,4.0,89,0.00,,,0.01,Wunderground v.1.15,2013-03-01 04:10:00,
2013-02-28 23:15:00,31.3,28.7,29.86,WNW,291,4.0,4.0,90,0.00,,,0.01,Wunderground v.1.15,2013-03-01 04:15:00,
2013-02-28 23:20:00,31.2,28.6,29.86,NW,318,3.0,3.0,90,0.00,,,0.01,Wunderground v.1.15,2013-03-01 04:20:00,
2013-02-28 23:30:00,31.1,28.8,29.86,ENE,57,1.0,2.0,91,0.00,,,0.01,Wunderground v.1.15,2013-03-01 04:30:00,
2013-02-28 23:35:00,31.1,28.8,29.86,NE,34,2.0,2.0,91,0.00,,,0.01,Wunderground v.1.15,2013-03-01 04:35:00,
2013-02-28 23:40:00,31.0,28.7,29.86,SSE,149,2.0,2.0,91,0.00,,,0.01,Wunderground v.1.15,2013-03-01 04:40:00,
2013-02-28 23:50:00,31.1,28.8,29.86,NNE,25,3.0,3.0,91,0.00,,,0.01,Wunderground v.1.15,2013-03-01 04:50:00,
2013-02-28 23:55:00,31.2,28.6,29.86,NW,319,3.0,3.0,90,0.00,,,0.01,Wunderground v.1.15,2013-03-01 04:55:00,